User: anonymous   Login
Location: Boussy-Saint-Antoine
(48.6830°N, 2.5330°E)
Time: 20:30:32
(UTC+02:00)
Language:

KKS-1 - Orbit

View from above orbital plane
View from above orbital plane
View from above satellite
View from above satellite

Ground track
Ground track

The orbit data is extracted from the following two-line orbital elements,

1 33499U 09002H   20227.15893180  .00000063  00000-0  17268-4 0  9994
2 33499  98.3109  83.4957 0008038 306.7267  53.3202 14.75551157621528
Epoch (UTC): 14 August 2020 03:48:51
Eccentricity: 0.0008038
inclination: 98.3109°
perigee height: 638 km
apogee height: 649 km
right ascension of ascending node: 83.4957°
argument of perigee: 306.7267°
revolutions per day: 14.75551157
mean anomaly at epoch: 53.3202°
orbit number at epoch: 62152

The dashed part of the orbit path shows where the satellite is in the earth's shadow,  

DLR